Location: Mascot Post Office (historical)
(40.2645°N, 99.5462°W)
Time: 02:14:57
(UTC+00:00)

Cosmos 1954 Rocket - Pass Details

Date: 14 July 2020
Orbit: 751 x 782 km, 74.0° (Epoch: 14 August)

Event Time Altitude Azimuth Distance (km) Brightness Sun altitude
Exits shadow 08:49:15 50° 201° (SSW) 983 4.1 -21.6°
Maximum altitude 08:50:42 87° 288° (WNW) 780 3.9 -21.5°
Drops below altitude 10° 08:56:01 10° 19° (NNE) 2,335 7.6 -21.0°
Sets 08:58:25 0° 19° (NNE) 3,270 8.7 -20.7°
